Weather History for VOBL - February, 2014

Change the Weather History Date:

Friday, February 14, 2014

  Actual Average Record
Temperature  
Mean Temperature 81 °F -  
Max Temperature 91 °F - - ()
Min Temperature 71 °F - - ()
Cooling Degree Days 16    
Growing Degree Days 31 (Base 50)    
Moisture  
Dew Point 67 °F    
Average Humidity 68    
Maximum Humidity 100    
Minimum Humidity 31    
Precipitation  
Precipitation 0.00 in - - ()
Sea Level Pressure  
Sea Level Pressure 29.99 in    
Wind  
Wind Speed 4 mph ()    
Max Wind Speed 9 mph    
Max Gust Speed -    
Visibility 3.9 miles    
Events      
T = Trace of Precipitation, MM = Missing Value Source: Averaged Metar Reports

Daily Weather History Graph

Daily Weather History Graph

Search for Another Location

Airport or City:

Trip Planner

Search our weather history database for the weather conditions in past years. The results will help you decide how hot, cold, wet, or windy it might be!

Date:

Astronomy

Feb. 14, 2014 Rise Set
Actual Time 6:42 AM IST 6:24 PM IST
Civil Twilight 6:20 AM IST 6:46 PM IST
Nautical Twilight 5:55 AM IST 7:11 PM IST
Astronomical Twilight 5:30 AM IST 7:36 PM IST
Moon 5:57 PM IST (2/14) 5:55 AM IST (2/14)
Length of Visible Light 12h 25m
Length of Day
11h 42m
Full, 100% of the Moon is Illuminated
Feb 14
Full
Feb 15
Full
Feb 22
Last Quarter
Mar 1
New
Mar 8
First Quarter

Hourly Weather History & Observations

Time (IST) Temp. Heat Index Dew Point Humidity Pressure Visibility Wind Dir Wind Speed Gust Speed Precip Events Conditions
1:30 AM 75.2 °F - 71.6 °F 89% 30.01 in 3.7 mi SE 5.8 mph - N/A   Scattered Clouds
2:30 AM 73.4 °F - 69.8 °F 88% 30.01 in 3.7 mi Variable 2.3 mph - N/A   Scattered Clouds
3:30 AM 73.4 °F - 71.6 °F 94% 30.01 in 3.7 mi South 8.1 mph - N/A   Scattered Clouds
4:30 AM 71.6 °F - 71.6 °F 100% 29.98 in 3.7 mi South 5.8 mph - N/A   Scattered Clouds
6:30 AM 71.6 °F - 71.6 °F 100% 30.01 in 1.9 mi South 4.6 mph - N/A   Haze
7:30 AM 71.6 °F - 71.6 °F 100% 30.04 in 1.9 mi SE 5.8 mph - N/A   Haze
8:30 AM 73.4 °F - 71.6 °F 94% 30.06 in 1.9 mi SSE 6.9 mph - N/A   Haze
9:30 AM 75.2 °F - 71.6 °F 89% 30.06 in 1.9 mi SSE 4.6 mph - N/A   Haze
10:30 AM 78.8 °F - 69.8 °F 74% 30.06 in 3.1 mi Variable 3.5 mph - N/A   Haze
11:30 AM 84.2 °F 87.3 °F 68.0 °F 58% 30.04 in 3.7 mi Variable 3.5 mph - N/A   Scattered Clouds
12:30 PM 86.0 °F 89.4 °F 68.0 °F 55% 30.01 in 3.7 mi Variable 3.5 mph - N/A   Scattered Clouds
1:30 PM 87.8 °F 90.4 °F 66.2 °F 49% 29.98 in 3.7 mi Variable 5.8 mph - N/A   Scattered Clouds
2:30 PM 89.6 °F 90.1 °F 62.6 °F 40% 29.92 in 3.7 mi Variable 3.5 mph - N/A   Scattered Clouds
3:30 PM 89.6 °F 88.9 °F 59.0 °F 36% 29.89 in 6.2 mi Variable 3.5 mph - N/A   Scattered Clouds
4:30 PM 91.4 °F 89.9 °F 57.2 °F 31% 29.89 in 6.2 mi South 4.6 mph - N/A   Scattered Clouds
5:30 PM 89.6 °F 88.1 °F 57.2 °F 33% 29.92 in 6.2 mi Variable 2.3 mph - N/A   Scattered Clouds
6:30 PM 86.0 °F 86.1 °F 60.8 °F 43% 29.92 in 6.2 mi Variable 2.3 mph - N/A   Scattered Clouds
7:30 PM 86.0 °F 87.3 °F 64.4 °F 48% 29.95 in 5.0 mi South 9.2 mph - N/A   Scattered Clouds
8:30 PM 82.4 °F 85.4 °F 68.0 °F 62% 29.98 in 3.7 mi Variable 3.5 mph - N/A   Scattered Clouds
9:30 PM 82.4 °F 85.4 °F 68.0 °F 62% 29.98 in 3.7 mi ESE 9.2 mph - N/A   Scattered Clouds
10:30 PM 78.8 °F - 68.0 °F 69% 30.01 in 3.7 mi ESE 8.1 mph - N/A   Scattered Clouds
11:30 PM 77.0 °F - 68.0 °F 74% 30.01 in 3.7 mi ESE 4.6 mph - N/A   Scattered Clouds